Weather Roundup
Issued by NWS Chicago, IL

Home | Current Version | Previous Version | Text Only | Print | Product List | Glossary On
Versions: 1 2 3 4 5 6 7 8 9 10 11 12 13 14 15 16 17 18 19 20 21 22 23 24 25 26 27 28 29 30 31 32 33 34 35 36 37 38 39 40 41 42 43 44 45 46 47 48 49 50
000
NZUS59 KLOT 260408
HRRLOT

CHICAGO AREA WEATHER ROUNDUP
NATIONAL WEATHER SERVICE CHICAGO/ROMEOVILLE IL
1100 PM CDT MON MAY 25 2015

NOTE: "FAIR" INDICATES FEW OR NO CLOUDS BELOW 12,000 FEET WITH NO
SIGNIFICANT WEATHER AND/OR OBSTRUCTIONS TO VISIBILITY.

* THESE STATIONS ARE NOT UNDER NWS QUALITY CONTROL. THEY ALSO MAY NOT
  REPORT WEATHER SUCH AS PRECIPITATION OR FOG.

ILZ005-006-012>014-019>023-260500-
NORTHEAST ILLINOIS

CITY           SKY/WX    TMP DP  RH WIND       PRES   REMARKS
OHARE          PTCLDY    71  58  63 S5        29.95R
MIDWAY         PTCLDY    75  60  59 S14       29.97R
AURORA         PTCLDY    70  58  65 S7        29.96R
LANSING*       CLEAR     72  60  66 S13       29.99R
JOLIET*        CLEAR     71  61  70 S7        29.97R
WAUKEGAN       CLEAR     67  59  75 S7        29.94R
DUPAGE AIRPORT PTCLDY    70  59  68 S7        29.95R
WHEELING       CLEAR     66  59  78 S5        29.96R
KANKAKEE*      CLEAR     71  64  77 S14G21    30.00R
MORRIS*        CLEAR     69  59  70 S8        29.95S
LEWIS AIRPORT* CLEAR     69  58  69 S9        29.98R
NORTHERLY IS     N/A     75  57  53 S12         N/A
$$

WIZ051-052-058>065-066-070>072-260500-
SOUTHEAST WISCONSIN

CITY           SKY/WX    TMP DP  RH WIND       PRES   REMARKS
MILWAUKEE      PTCLDY    71  60  68 SW12      29.92R
KENOSHA*       CLEAR     69  60  73 S8        29.94R
RACINE*        CLEAR     71  59  65 SW10      29.95R
BURLINGTON     PTCLDY    64  59  84 S5        29.93S
WAUKESHA       PTCLDY    66  59  77 S5        29.93S
WEST BEND      PTCLDY    68  59  73 S6        29.91R
$$

INZ001>003-010>013-019-020-260500-
NORTHWEST INDIANA

CITY           SKY/WX    TMP DP  RH WIND       PRES   REMARKS
GARY*          CLEAR     75  63  64 S8        29.98S
MICHIGAN CITY* NOT AVBL
RENSSELAER*    NOT AVBL
VALPARAISO     CLEAR     72  62  71 S9G18     30.01R
$$

LMZ740>746-260500-
SOUTHERN LAKE MICHIGAN

STATION/POSITION TIME  SKY/WX   TEMP WIND        PRES    VSBY
                                AIR  DIR/SP/G
                 (UTC)          (F)  (DEG/KT/KT) (MB)    (MI)
HARRISON CRIB    0300            75  190/ 11/ 11   N/A
BURNHAM HARBOR   0400            74  200/ 10/ 13   N/A
CALUMET HARBOR   0300            74  170/  6/  9   N/A
BURNS HARBOR     0300            74  190/ 11/ 15 1015.2R
MICHIGAN CITY    0300            74  170/ 10/ 14   N/A
$$

ABBREVIATIONS USED IN REMARKS
   TC - TEMPERATURE IN CELSIUS
  WCI - WIND CHILL INDEX
   HX - HEAT INDEX
  VSB - VISIBILITY
$$


USA.gov is the U.S. government's official web portal to all federal, state and local government web resources and services.